This demonstration page uses our WeatherBlox Daily Observations layout. Learn more.

38.89511, -77.03637

Hourly Observations for August 12, 2015

Temp ( °F °C ) Dew Point ( °F °C ) Humidity (%) Winds ( mph kmh ) Pressure ( in mb ) Visibility ( mi km ) Precip ( " mm )
12:52 am 00:52 Mostly Cloudy 75 24 68 20 78 78 N 5 7 29.85 1011 10 16.09344 0 0
1:52 am 01:52 Mostly Cloudy 77 25 64 18 65 65 NNW 8 13 29.88 1012 10 16.09344 0 0
2:52 am 02:52 Mostly Cloudy 77 25 61 16 57 57 NW 14 22 29.88 1012 10 16.09344 0 0
3:52 am 03:52 Mostly Clear 75 24 61 16 61 61 NW 13 20 29.88 1012 10 16.09344 0 0
4:52 am 04:52 Mostly Clear 73 23 61 16 65 65 NNW 10 17 29.88 1012 10 16.09344 0 0
5:52 am 05:52 Partly Cloudy 72 22 61 16 69 69 NNW 7 11 29.88 1012 10 16.09344 0 0
6:52 am 06:52 Mostly Sunny 72 22 61 16 69 69 NW 9 15 29.91 1013 10 16.09344 0 0
7:52 am 07:52 Mostly Sunny 73 23 61 16 65 65 NNW 10 17 29.94 1014 10 16.09344 0 0
8:52 am 08:52 Mostly Sunny 75 24 61 16 61 61 NNW 16 26 29.94 1014 10 16.09344 0 0
9:52 am 09:52 Mostly Sunny 77 25 61 16 57 57 NW 17 28 29.97 1015 10 16.09344 0 0
10:52 am 10:52 Partly Cloudy 79 26 63 17 58 58 NNW 10 17 29.97 1015 10 16.09344 0 0
11:52 am 11:52 Partly Cloudy 81 27 63 17 54 54 NW 14 22 29.97 1015 10 16.09344 0 0
12:52 pm 12:52 Partly Cloudy 82 28 61 16 48 48 NW 15 24 29.97 1015 10 16.09344 0 0
1:52 pm 13:52 Partly Cloudy 82 28 59 15 45 45 NNW 12 19 29.94 1014 10 16.09344 0 0
2:52 pm 14:52 Partly Cloudy 82 28 57 14 42 42 NW 9 15 29.94 1014 10 16.09344 0 0
3:52 pm 15:52 Mostly Cloudy 84 29 55 13 37 37 NNW 15 24 29.94 1014 10 16.09344 0 0
4:52 pm 16:52 Partly Cloudy 84 29 55 13 37 37 NNW 13 20 29.91 1013 10 16.09344 0 0
5:52 pm 17:52 Partly Cloudy 84 29 55 13 37 37 NNW 13 20 29.94 1014 10 16.09344 0 0
6:52 pm 18:52 Mostly Sunny 82 28 54 12 37 37 NNW 13 20 29.94 1014 10 16.09344 0 0
7:52 pm 19:52 Mostly Sunny 82 28 54 12 37 37 NW 9 15 29.94 1014 10 16.09344 0 0
8:52 pm 20:52 Mostly Clear 81 27 55 13 42 42 WNW 6 9 29.97 1015 10 16.09344 0 0
9:52 pm 21:52 Mostly Clear 79 26 55 13 45 45 WNW 5 7 29.97 1015 10 16.09344 0 0
10:52 pm 22:52 Mostly Clear 75 24 57 14 54 54 NNW 3 6 30 1016 10 16.09344 0 0
11:52 pm 23:52 Mostly Clear 73 23 57 14 57 57 N 7 11 30 1016 10 16.09344 0 0

Powered by AerisWeather